Location: *
(43.4667°N, 11.6833°E)
Time: 18:45:21
(UTC+00:00)

Daily predictions for brighter satellites

Satellite Brightness Start Highest point End
(mag) Time Altitude Azimuth Time Altitude Azimuth Time Altitude Azimuth
Cosmos 921 Rocket 4.2 19:15:36 10° N 19:19:18 28° ENE 19:23:01 10° SE
Cosmos 1302 Rocket 4.3 19:14:40 10° NNW 19:19:53 71° WSW 19:25:01 10° S
SL-08 RB Rocket 3.8 19:16:47 10° SSE 19:21:11 61° ENE 19:25:36 10° N
Cosmos 2251 Rocket 3.5 19:17:48 10° S 19:23:01 72° ESE 19:28:14 10° NNE
IRIDIUM 114 4.4 19:18:26 10° N 19:23:41 90° SE 19:28:54 10° S
SJ-6B 4.1 19:20:57 10° SSW 19:24:27 38° W 19:27:58 10° NNW
CZ-2C R/B 3.8 19:22:30 10° NE 19:26:27 21° E 19:30:20 10° SE
Cosmos 1461 3.1 19:23:27 10° NW 19:27:23 65° WSW 19:31:22 10° SSE
Cosmos 1151 Rocket 3.9 19:28:46 10° N 19:32:46 33° ENE 19:36:43 10° SE
Aureole 1 Rocket 3.6 19:28:08 10° SSW 19:32:54 82° ESE 19:39:20 10° NNE
Resurs 01 Rocket 1.6 19:29:54 10° SSE 19:34:20 86° ENE 19:38:47 10° NNW
USA 215 3.5 19:28:04 10° NE 19:34:39 81° NW 19:41:12 10° WSW
Cosmos 2322 Rocket 2.2 19:31:10 10° S 19:36:48 65° ESE 19:42:27 10° NNE
BREEZE-M DEB (TANK) 3.8 19:34:46 10° W 19:36:51 16° WSW 19:38:19 10° SSW
Cosmos 1869 3.4 19:36:37 10° N 19:40:34 78° W 19:44:29 10° S
Cosmos 1340 Rocket 3.0 19:37:42 10° NNW 19:41:49 79° W 19:45:52 10° S
Cosmos 1992 Rocket 4.1 19:37:32 10° NNW 19:42:47 70° ENE 19:47:59 10° SSE
SL-16 R/B 2.2 19:37:45 10° SSW 19:43:25 83° ESE 19:49:07 10° NNE
Cosmos 1825 4.0 19:42:35 12° ESE 19:44:31 16° E 19:46:53 10° NE
Cosmos 1328 Rocket 3.8 19:42:12 10° N 19:46:30 53° E 19:50:37 11° SSE
Cosmos 2333 Rocket 4.0 19:44:58 10° ESE 19:46:36 11° E 19:48:12 10° E
ARGOS 3.7 19:41:50 10° S 19:47:11 59° W 19:52:32 10° NNW
SPOT 5 4.4 19:45:03 10° ESE 19:48:51 23° ENE 19:52:37 10° NNE
Cosmos 1072 Rocket 4.4 19:43:49 10° S 19:49:55 75° E 19:56:01 10° N
SPOT 1/Viking Rocket 4.5 19:49:23 12° SE 19:53:29 33° ENE 19:58:06 10° N
Spot 2 Rocket 3.5 19:48:48 10° SSE 19:53:53 80° ENE 19:59:01 10° NNW
Gbstr 26 Del rocket 4.0 19:53:01 10° W 19:56:59 44° NNW 20:00:36 10° NE
Cosmos 1844 Rocket 3.8 19:52:02 10° N 19:57:05 32° NE 20:01:27 13° ESE
Cosmos 1500 Rocket 4.4 19:54:46 13° SSE 19:58:13 32° E 20:02:12 10° NNE
EO 1 Del DPAF 3.8 19:58:13 10° NNE 20:01:48 38° E 20:04:41 14° SSE
Cosmos 2263 Rocket 2.7 19:56:45 10° NNW 20:02:21 58° WSW 20:07:53 10° S
Cosmos 1238 Rocket 4.1 19:55:56 10° S 20:02:33 88° E 20:09:08 10° N
Cosmos 1242 Rocket 3.2 19:59:02 10° SSW 20:02:39 59° WNW 20:06:18 10° N
Cosmos 2151 3.2 19:58:55 10° SSW 20:03:11 73° W 20:07:29 10° N
In-Cosmos 22 Rocket 4.2 19:59:18 10° SSW 20:04:43 83° W 20:10:19 10° N
Nadezhda 4 Rocket 4.2 19:59:37 10° N 20:05:50 59° ENE 20:11:05 14° SSE
USA 267 3.3 20:02:35 14° ESE 20:08:24 80° NE 20:14:58 10° NW
Tiangong 2 1.9 20:07:50 10° W 20:10:44 35° SSW 20:12:00 24° SSE
Cosmos 2034 Rocket 4.0 20:06:44 10° S 20:12:56 75° E 20:19:15 10° N
CZ-2C R/B 3.5 20:09:12 10° S 20:14:33 62° W 20:19:39 10° NNW
MetOp-B 4.2 20:09:55 11° SSE 20:15:00 82° WSW 20:20:24 10° NNW
NOSS 3-1 (C) 3.7 20:10:26 10° S 20:15:25 37° ESE 20:21:00 10° NE
Lacrosse 5 4.4 20:12:31 10° NW 20:15:53 17° N 20:19:15 10° NE
IGS 5A 4.1 20:14:40 20° SE 20:17:05 41° ENE 20:21:01 10° N
ISS -3.1 20:14:22 10° WSW 20:17:40 59° NNW 20:20:59 10° NE
Cosmos 1892 3.1 20:14:47 10° SSW 20:18:36 64° W 20:22:25 10° N
Cosmos 2237 4.2 20:14:30 10° S 20:20:05 61° ESE 20:25:42 10° NNE
DELTA 2 R/B (1) 3.8 20:15:06 10° WSW 20:20:26 47° SSE 20:25:41 10° E
Cosmos 1092 Rocket 4.2 20:18:58 10° N 20:25:05 54° ENE 20:29:10 21° SSE
Cosmos 1743 Rocket 3.5 20:21:56 14° S 20:25:41 74° E 20:30:02 10° NNE
Lacrosse 5 rocket 4.2 20:23:39 10° NNW 20:26:28 16° N 20:29:15 10° NE
SOZ 4.2 20:30:45 10° WSW 20:33:23 82° NNW 20:35:38 10° ENE
MOS 1 Rocket 4.3 20:30:17 10° NE 20:34:09 27° E 20:35:21 24° ESE
Terra 2.6 20:32:10 23° ESE 20:34:32 39° ENE 20:38:57 10° N
Cosmos 1515 Rocket 3.7 20:31:08 10° NNW 20:35:29 71° W 20:38:26 20° S
BREEZE-M DEB (TANK) 3.1 20:33:28 10° SSW 20:37:31 46° SE 20:42:36 10° ENE
COSMOS 2428 3.4 20:35:58 24° SSE 20:38:29 34° ESE 20:43:35 10° NE
Cosmos 44 Rocket 4.4 20:34:07 10° SW 20:39:04 48° NW 20:43:57 10° NNE
Cosmos 1844 4.1 20:34:48 10° NNW 20:40:18 52° ENE 20:43:24 25° SE
SL-4 R/B 2.3 20:37:17 10° SW 20:42:08 74° SE 20:46:55 10° ENE
H-2A R/B 4.5 20:38:58 10° SW 20:42:45 19° W 20:46:31 10° NW
Cosmos 1782 4.1 20:40:08 10° NNE 20:43:31 25° ENE 20:44:27 23° E
Cosmos 1954 Rocket 4.5 20:42:33 27° SSE 20:44:49 41° ESE 20:49:44 10° NE
Cosmos 1356 Rocket 3.4 20:41:55 10° N 20:46:14 89° E 20:48:17 31° S
Cosmos 1634 Rocket 4.1 20:42:40 22° SSE 20:46:45 59° E 20:52:51 10° NNE
Cosmos 1408 3.1 20:46:26 17° SSW 20:49:09 58° W 20:52:50 10° N
USA 245 3.6 20:49:02 26° WSW 20:49:17 26° W 20:51:16 10° NW
Cosmos 2360 Rocket 2.5 20:43:59 10° SSW 20:49:36 70° WNW 20:55:15 10° NNE
Cosmos 1140 Rocket 3.5 20:46:59 22° S 20:50:12 59° ESE 20:55:19 10° NNE
Cosmos 1805 Rocket 3.8 20:49:08 34° SE 20:50:36 48° E 20:54:48 10° NNE
Cosmos 2237 Rocket 3.8 20:52:55 17° E 20:52:55 17° E 20:56:15 10° ENE
USA 229 DEB 3.6 20:46:49 10° SSW 20:53:23 86° SE 21:00:18 10° NE
USA 229 3.6 20:46:55 10° SSW 20:53:30 85° ESE 21:00:24 10° NE
Cosmos 407 Rocket 3.6 20:49:24 10° SSW 20:54:43 82° WNW 21:00:06 10° NNE
NOSS 3-1 (A) 3.5 20:53:27 22° S 20:56:46 48° ESE 21:02:43 10° NE
Cosmos 2026 Rocket 4.0 20:51:06 10° N 20:57:10 65° E 21:00:17 30° SSE
Meteor 2-11 Rocket 4.5 20:54:59 16° S 21:00:01 83° W 21:06:09 10° N
Mayak 0.5 20:57:15 10° NE 20:59:49 18° E 20:59:49 18° E
ERS-1 Rocket 3.3 20:57:30 24° S 21:00:29 61° WSW 21:05:30 10° NNW
Cosmos 614 Rocket 4.0 20:56:18 11° SSW 21:01:05 80° WNW 21:06:12 10° NNE
Cosmos 1190 Rocket 4.1 20:56:35 10° SSW 21:01:47 78° WNW 21:07:01 10° NNE
ATLAS CENTAUR R/B 3.7 20:59:53 10° N 21:03:21 20° NE 21:06:12 12° E
Cosmos 1606 2.6 20:59:58 10° N 21:03:46 87° W 21:04:44 48° S
Cosmos 2195 Rocket 4.5 20:57:45 10° N 21:04:06 85° E 21:07:37 29° S
Thor Agena Rocket 3.7 20:59:08 10° N 21:04:10 72° WNW 21:08:16 16° SSW
USA 81 4.0 21:00:28 10° N 21:05:46 83° W 21:08:28 30° S
Cosmos 2228 Rocket 3.9 21:01:53 10° NNW 21:06:16 47° W 21:08:49 23° SSW
CZ-2C R/B 3.4 21:01:59 10° N 21:07:00 49° WNW 21:11:57 10° SW
CARTOSAT-1 3.6 21:05:58 36° S 21:07:39 71° WSW 21:11:59 10° NNW
BREEZE-M DEB (TANK) 4.0 21:08:51 10° WNW 21:10:51 25° N 21:12:52 10° NE
Cosmos 1666 Rocket 4.0 21:10:29 40° ESE 21:11:13 44° E 21:15:30 10° NNE
Cosmos 1633 Rocket 3.7 21:12:18 36° ESE 21:12:38 37° E 21:16:38 10° NNE
SL-8 R/B 3.6 21:10:57 10° WNW 21:15:45 83° SSW 21:17:15 44° SE
Cosmos 2219 Rocket 2.1 21:16:17 30° S 21:19:09 69° ESE 21:24:48 10° NNE
Cosmos 1825 3.7 21:17:23 17° SW 21:19:45 33° WNW 21:23:12 10° N
Cosmos 1263 4.4 21:21:24 10° NNW 21:24:19 68° W 21:24:19 68° W
Cosmos 2333 4.3 21:19:20 13° SSW 21:24:29 76° WNW 21:30:11 10° NNE
Cosmos 2084 Rocket 3.3 21:22:07 10° NW 21:26:29 85° WSW 21:27:13 61° SSE
SPOT 5 3.7 21:24:18 27° SSW 21:26:39 45° W 21:31:20 10° NNW
Cosmos 1862 Rocket 4.5 21:24:12 10° N 21:28:08 33° ENE 21:28:33 32° E
Sich 1 2.9 21:28:46 54° S 21:29:43 88° W 21:34:01 10° N
Cosmos 2333 Rocket 2.1 21:26:50 29° SSW 21:29:54 82° ESE 21:35:37 10° NNE
Cosmos 2278 Rocket 2.9 21:24:40 10° NNW 21:30:05 44° ENE 21:32:13 31° ESE
Meteor 2-3 Rocket 4.3 21:26:00 18° SSW 21:30:14 58° WNW 21:36:00 10° N
Cosmos 1844 Rocket 3.5 21:35:46 10° NW 21:41:05 42° WSW 21:43:07 31° SSW
Cosmos 2266 Rocket 4.3 21:41:33 10° N 21:47:47 54° ENE 21:49:40 40° SE
USA 267 4.3 21:49:55 27° SSW 21:51:48 31° SW 21:57:28 10° WNW
Cosmos 1818 3.7 21:46:51 10° NW 21:52:15 61° WSW 21:53:21 50° SSW
NOSS 2-3 (C) 3.5 21:53:01 69° SSE 21:53:22 74° SE 21:58:27 10° NE
ISS -1.1 21:52:11 10° WNW 21:54:51 21° N 21:57:30 10° NE
ASTEX 1 4.0 21:51:57 10° N 21:56:49 52° W 21:58:38 34° SW
Cosmos 2279 Rocket 4.2 21:55:00 32° SSW 21:57:56 66° W 22:04:07 10° N
Lacrosse 5 3.6 21:55:54 10° NW 22:00:19 29° NNE 22:04:14 12° E
Cosmos 1570 Rocket 4.4 21:56:30 10° NNW 22:01:39 54° ENE 22:02:40 46° ESE
Helios 1A 2.8 22:04:14 89° ESE 22:04:15 89° ENE 22:08:27 10° NNW
DELTA 2 R/B (1) 3.5 22:01:03 10° W 22:06:26 59° S 22:06:26 59° S
Lacrosse 5 rocket 3.1 22:02:47 10° NW 22:06:56 32° NNE 22:09:02 21° ENE
ERS-2 4.4 22:07:40 16° ENE 22:07:40 16° ENE 22:09:58 10° NNE
Terra 3.5 22:11:03 21° WSW 22:12:23 24° W 22:16:12 10° NW
Cosmos 1867 3.6 22:13:15 39° SW 22:15:20 76° NW 22:20:51 10° NNE
Cosmos 1812 3.3 22:14:59 10° N 22:18:13 53° NE 22:18:13 53° NE
Nimbus 7 Rocket 4.4 22:13:37 10° NNE 22:19:34 81° WNW 22:21:27 47° SSW
SL-16 R/B 3.1 22:20:08 33° E 22:20:08 33° E 22:24:53 10° NE
SL-4 R/B 3.8 22:17:39 10° W 22:22:12 39° NNW 22:26:37 10° NE
COSMOS 2428 3.9 22:17:54 13° WSW 22:22:39 38° WNW 22:28:00 10° NNE
Cosmos 1741 Rocket 4.2 22:21:41 49° SW 22:22:58 68° WNW 22:28:12 10° NNE
NOSS 0 Rocket 4.0 22:22:14 37° SW 22:24:47 74° WNW 22:30:59 10° NNE
Cosmos 1315 Rocket 4.2 22:24:06 10° N 22:27:14 30° ENE 22:27:14 30° ENE
Cosmos 1862 4.1 22:28:01 43° WNW 22:28:02 43° WNW 22:31:53 10° N
Spot 4 4.1 22:28:03 54° WSW 22:28:22 55° W 22:33:04 10° NNW
Cosmos 1980 3.7 22:27:29 48° SW 22:29:05 76° WNW 22:34:49 10° NNE
Cosmos 1400 Rocket 3.1 22:25:28 10° N 22:29:10 70° N 22:29:10 70° N
Cosmos 1633 3.7 22:31:22 39° NW 22:31:22 39° NW 22:34:13 10° N
Mayak -0.3 22:31:56 10° N 22:35:56 41° WNW 22:36:24 39° W
Cosmos 2237 Rocket 2.3 22:34:43 49° SW 22:36:13 72° WNW 22:41:52 10° NNE
ARGOS Delta rocket 3.7 22:36:26 68° W 22:36:26 68° W 22:40:54 10° NNW
Cosmos 540 Rocket 3.9 22:34:35 10° N 22:39:34 49° ENE 22:40:17 45° E
Cosmos 1703 Rocket 3.7 22:37:58 10° N 22:42:11 72° NE 22:42:11 72° NE
ATLAS CENTAUR R/B 1.8 22:38:13 10° NW 22:42:23 64° WNW 22:42:23 64° WNW
Lacrosse 4 Rocket 2.3 22:45:44 43° ENE 22:45:44 43° ENE 22:49:03 10° NE
Cosmos 2242 Rocket 4.1 22:40:24 10° NNW 22:44:44 52° W 22:44:44 52° W
Helios 1B rocket 2.7 22:40:52 10° N 22:44:38 67° NNW 22:44:38 67° NNW
YAOGAN 11 4.5 22:47:03 55° WNW 22:47:03 55° WNW 22:50:56 10° NNW
Cosmos 1933 Rocket 4.2 22:51:00 46° W 22:51:06 46° WNW 22:55:21 10° N
ALOS 2 2.8 22:54:11 65° WNW 22:54:11 65° WNW 22:58:11 10° NNW
Okean 1-7 3.2 22:50:07 10° N 22:53:58 69° NNE 22:53:58 69° NNE
SeaSat 1 2.3 22:49:53 10° NNE 22:54:51 83° WNW 22:55:13 76° SW
CZ-4 R/B 3.9 22:50:24 10° NNE 22:54:49 63° E 22:54:49 63° E
COSMOS 2455 2.7 22:55:29 61° SSW 22:56:40 90° WNW 23:02:45 10° NNE
Cosmos 2221 Rocket 4.3 22:54:53 10° N 22:59:06 45° ENE 22:59:06 45° ENE
Cosmos 841 Rocket 3.3 22:55:20 10° NNW 23:00:30 84° WSW 23:00:38 82° SSW
BREEZE-M DEB (TANK) 3.6 22:57:39 10° WNW 23:01:01 64° NNE 23:13:00 10° ESE
Cosmos 2219 Rocket 4.3 22:59:23 10° W 23:03:39 21° NW 23:07:56 10° N
Meteor 1-14 Rocket 4.4 23:05:53 56° ESE 23:06:31 59° E 23:12:20 10° NNE
Cosmos 724 4.5 23:00:45 10° NW 23:06:35 54° WSW 23:06:51 53° SW
Cosmos 1763 Rocket 4.1 23:01:57 10° NNW 23:06:50 44° WSW 23:06:50 44° WSW
GP-B 4.2 23:02:51 10° NNW 23:06:53 34° W 23:06:58 34° W
Cosmos 2297 3.6 23:03:27 10° NNW 23:09:08 85° ENE 23:09:49 70° SE
BREEZE M DEB (TANK) 3.8 23:10:34 39° E 23:10:34 39° E 23:17:14 10° ENE
Meteor 1-25 Rocket 4.0 23:10:41 73° SSE 23:11:12 83° E 23:16:48 10° NNE
Cosmos 1943 Rocket 3.8 23:06:46 10° N 23:11:28 28° NE 23:14:26 18° E
ATLAS 5 CENTAUR R/B 3.3 23:06:40 10° NNW 23:12:10 44° NE 23:16:01 22° ESE
Meteor 1-18 Rocket 4.2 23:08:16 10° N 23:13:52 70° ENE 23:14:34 63° SE
Cosmos 2278 Rocket 3.3 23:09:08 10° NW 23:13:57 29° WSW 23:14:02 29° WSW
Cosmos 1869 Rocket 3.8 23:15:57 67° NW 23:15:57 67° NW 23:19:57 10° N
Meteor 1-20 Rocket 4.1 23:15:53 70° S 23:16:37 90° ESE 23:22:30 10° N
ATLAS 3B R/B 4.5 23:17:08 10° NNW 23:22:40 27° NE 23:28:15 10° E
Cosmos 2285 Rocket 4.2 23:21:38 46° SW 23:23:22 63° WNW 23:29:39 10° NNE
SL-19 R/B 4.2 23:27:15 67° SSW 23:27:54 75° WSW 23:33:46 10° NNW
Okean 1 3.9 23:26:44 10° N 23:29:58 56° N 23:29:58 56° N
Gbstr 26 Del rocket 4.0 23:28:30 10° NW 23:32:01 38° NNE 23:33:20 28° ENE
ISS -1.3 23:29:36 10° NW 23:32:19 22° N 23:35:01 10° ENE
Meteor 2-19 Rocket 4.5 23:30:08 10° NNW 23:36:15 66° W 23:37:13 58° SW
USA 238 DEB 4.2 23:31:07 10° NNW 23:38:14 62° NE 23:43:06 22° ESE
USA 238 4.2 23:31:13 10° NNW 23:38:20 62° NE 23:43:15 22° ESE
ATLAS 2AS CENTAUR R/B 3.4 23:37:21 42° SSE 23:39:05 47° ESE 23:46:43 10° NE
Cosmos 2369 Rocket 3.1 23:34:12 10° NNW 23:39:40 43° ENE 23:42:12 27° ESE
ERS-2 3.9 23:42:18 26° NW 23:42:18 26° NW 23:44:22 10° NNW
CZ-4B R/B 4.0 23:38:14 10° NNE 23:43:00 43° E 23:43:05 43° ESE
Lacrosse 5 1.8 23:38:40 10° NW 23:43:22 72° W 23:43:22 72° W
Cosmos 1553 Rocket 3.9 23:43:09 57° SW 23:44:16 70° W 23:50:22 10° N
CZ-2D R/B 4.1 23:42:25 10° NE 23:45:49 17° E 23:47:18 15° ESE
Lacrosse 5 rocket 2.7 23:41:56 10° NW 23:44:38 32° WNW 23:44:38 32° WNW
S3M 4.0 23:47:44 58° SSW 23:49:05 81° W 23:55:31 10° N
Cosmos 1603 3.9 23:50:04 53° SE 23:50:31 54° ESE 23:56:01 10° NNE
Cosmos 1674 Rocket 3.9 23:48:08 10° N 23:52:31 60° ENE 23:52:31 60° ENE
DELTA 2 DEB (DPAF) 4.3 23:54:20 66° WNW 23:54:20 66° WNW 23:58:25 10° NNW
Cosmos 1733 Rocket 3.1 23:54:21 76° NNE 23:54:21 76° NNE 23:58:27 10° N
